This demonstration page uses our WeatherBlox Daily Observations layout. Learn more.

Left ArrowRight Arrow

Hourly Observations for September 26, 2015

Temp ( °F °C ) Dew Point ( °F °C ) Humidity (%) Winds ( mph kmh ) Pressure ( in mb ) Visibility ( mi km ) Precip ( " mm )
12:53 am 00:53 Clear 66 18.9 54 12.2 65 65 ESE 7 11 30.2 1023 10 16.0934 0 0
1:53 am 01:53 Clear 65 18.3 56 13.3 73 73 E 3 6 30.2 1023 10 16.0934 0 0
2:53 am 02:53 Mostly Cloudy with Light Rain 65 18.3 56 13.3 73 73 E 8 13 30.19 1023 10 16.0934 0 0.0254
3:53 am 03:53 Cloudy with Light Rain 64 17.8 58 14.4 81 81 E 8 13 30.19 1022 10 16.0934 0 0.0254
4:53 am 04:53 Mostly Cloudy 63 17.2 59 15 87 87 ENE 5 7 30.19 1022 10 16.0934 0.01 0.254
5:53 am 05:53 Cloudy 63 17.2 58 14.4 84 84 ENE 6 9 30.19 1022 10 16.0934 0 0
6:53 am 06:53 Cloudy 63 17.2 58 14.4 84 84 ENE 7 11 30.2 1023 10 16.0934 0 0
7:53 am 07:53 Cloudy 63 17.2 58 14.4 84 84 ENE 7 11 30.22 1023 10 16.0934 0 0
8:53 am 08:53 Cloudy 64 17.8 58 14.4 81 81 ENE 6 9 30.23 1024 10 16.0934 0 0
9:53 am 09:53 Cloudy 67 19.4 58 14.4 73 73 E 10 17 30.23 1024 10 16.0934 0 0
10:01 am 10:01 Cloudy 66 18.9 58 14.4 75 75 E 12 19 30.21 1023 10 16.0934 0 0
10:12 am 10:12 Cloudy 67 19.4 58 14.4 73 73 E 8 13 30.21 1023 10 16.0934 0 0
10:53 am 10:53 Cloudy 68 20 59 15 73 73 E 12 19 30.24 1024 10 16.0934 0 0
11:46 am 11:46 Cloudy 69 20.6 59 15 70 70 E 10 17 30.21 1023 10 16.0934 0 0
11:53 am 11:53 Cloudy 69 20.6 59 15 70 70 E 9 15 30.23 1024 10 16.0934 0 0
12:53 pm 12:53 Cloudy 70 21.1 58 14.4 66 66 E 15 24 30.22 1024 10 16.0934 0 0
1:53 pm 13:53 Cloudy 70 21.1 58 14.4 66 66 ESE 9 15 30.21 1023 10 16.0934 0 0
2:41 pm 14:41 Cloudy 71 21.7 59 15 66 66 E 9 15 30.18 1022 10 16.0934 0 0
2:53 pm 14:53 Cloudy 71 21.7 59 15 66 66 ESE 9 15 30.19 1023 10 16.0934 0 0
3:18 pm 15:18 Cloudy 71 21.7 59 15 66 66 ESE 8 13 30.18 1022 10 16.0934 0 0
3:53 pm 15:53 Cloudy with Rain 68 20 61 16.1 78 78 ESE 6 9 30.19 1023 5 8.0467 0.02 0.508
4:03 pm 16:03 Cloudy with Light Rain 67 19.4 62 16.7 84 84 E 7 11 30.18 1022 4 6.43736 0.01 0.254
4:32 pm 16:32 Cloudy 68 20 62 16.7 81 81 E 12 19 30.18 1022 10 16.0934 0.02 0.508
4:53 pm 16:53 Cloudy 68 20 61 16.1 78 78 E 13 20 30.19 1022 10 16.0934 0.02 0.508
5:12 pm 17:12 Cloudy 68 20 61 16.1 78 78 E 10 17 30.18 1022 10 16.0934 0 0
5:53 pm 17:53 Cloudy 68 20 61 16.1 78 78 E 12 19 30.19 1023 10 16.0934 0 0
6:02 pm 18:02 Cloudy 68 20 61 16.1 78 78 E 9 15 30.18 1022 10 16.0934 0 0
6:53 pm 18:53 Cloudy 67 19.4 61 16.1 81 81 E 15 24 30.2 1023 10 16.0934 0 0
7:53 pm 19:53 Mostly Cloudy 66 18.9 61 16.1 84 84 E 12 19 30.2 1023 10 16.0934 0 0
8:35 pm 20:35 Cloudy 66 18.9 61 16.1 84 84 E 8 13 30.18 1022 10 16.0934 0 0
8:53 pm 20:53 Cloudy 66 18.9 61 16.1 84 84 E 9 15 30.21 1023 10 16.0934 0 0
9:53 pm 21:53 Cloudy 66 18.9 61 16.1 84 84 E 8 13 30.21 1023 10 16.0934 0 0.0254
10:53 pm 22:53 Cloudy 66 18.9 61 16.1 84 84 ESE 8 13 30.21 1023 10 16.0934 0 0
11:53 pm 23:53 Cloudy 67 19.4 61 16.1 81 81 ESE 7 11 30.2 1023 10 16.0934 0 0

Powered by AerisWeather